Date,TemperatureHighF,TemperatureAvgF,TemperatureLowF,DewpointHighF,DewpointAvgF,DewpointLowF,HumidityHigh,HumidityAvg,HumidityLow,PressureMaxIn,PressureMinIn,WindSpeedMaxMPH,WindSpeedAvgMPH,GustSpeedMaxMPH,PrecipitationSumIn
2013-2-1,20,12,8,17,6,2,90,77,69,30.37,29.89,23,8,23,0.00
2013-2-2,14,11,8,10,6,3,89,81,79,30.34,30.19,12,2,12,0.00
2013-2-3,25,22,18,23,18,13,93,87,75,30.08,29.87,12,4,20,0.00
2013-2-4,29,25,15,28,22,12,94,88,64,30.09,29.82,12,1,14,0.01
2013-2-5,30,28,27,28,26,23,95,90,80,29.95,29.82,15,2,15,0.00
2013-2-6,37,30,16,28,23,13,92,77,58,30.28,29.95,13,2,14,0.06
2013-2-7,48,34,16,35,27,12,92,75,54,30.25,29.80,15,1,15,0.01
2013-2-8,43,34,27,38,30,21,93,83,73,30.26,29.71,22,8,22,0.14
2013-2-9,36,28,22,24,19,17,81,70,55,30.41,30.26,13,2,13,0.00
2013-2-10,48,38,25,41,27,18,84,65,47,30.27,29.80,22,2,22,0.01
2013-2-11,53,46,38,46,38,28,93,74,52,29.93,29.69,35,11,35,0.01
2013-2-12,44,36,29,31,28,24,84,70,58,30.08,29.88,28,6,28,0.00
2013-2-13,33,29,26,31,26,23,93,89,83,29.88,29.70,10,1,10,0.04
2013-2-14,43,34,25,38,31,24,94,90,80,29.92,29.79,26,3,26,0.04
2013-2-15,36,32,26,33,28,22,94,87,80,30.08,29.92,12,2,12,0.06
2013-2-16,30,24,17,23,18,10,90,81,58,30.07,29.95,20,3,20,0.01
2013-2-17,23,18,14,14,10,7,83,73,61,30.25,30.03,16,4,18,0.00
2013-2-18,50,22,13,34,14,8,83,70,51,30.26,29.74,9,2,21,0.00
2013-2-19,48,30,21,40,24,15,93,80,56,30.02,29.60,35,14,35,0.18
2013-2-20,22,20,17,17,13,10,83,75,67,30.26,30.02,25,9,25,0.00
2013-2-21,28,23,20,19,17,13,85,76,68,30.34,30.20,13,3,13,0.00
2013-2-22,42,33,25,40,30,18,95,88,74,30.20,29.88,19,2,19,0.05
2013-2-23,41,36,28,34,30,24,90,80,63,29.94,29.83,17,2,17,0.00
2013-2-24,32,30,26,26,24,22,89,78,67,30.13,29.88,16,3,16,0.00
2013-2-25,44,34,21,28,24,18,93,70,49,30.19,29.95,13,1,13,0.00
2013-2-26,43,37,32,41,32,24,95,84,65,29.96,29.44,12,4,19,0.67
2013-2-27,43,38,33,42,35,31,95,91,84,29.65,29.45,22,8,22,0.26
2013-2-28,36,33,31,34,31,29,94,92,87,29.86,29.60,24,6,24,0.04